Tracking 28794 objects as of 19-Apr-2024
HD Live streaming from Space Station
objects crossing your sky now

CZ-3A DEB

Track CZ-3A DEB now!
10-day predictions


NORAD ID: 35547
Int'l Code: 2007-003F
Perigee: 275.4 km
Apogee: 9,778.8 km
Inclination: 24.6 °
Period: 201.8 minutes
Semi major axis: 11398 km
RCS: 0.0399 m2 (small)
Launch date: February 2, 2007
Source: People's Republic of China (PRC)
Launch site: Xichang Space Center, China (XSC)

Note: This is SATELLITE DEBRIS
Your satellite tracking list
Your tracking list is empty




NASA's NSSDC Master Catalog

Two Line Element Set (TLE):
1 35547U 07003F   24097.01809150  .00195483  00000-0  11805-1 0  9996
2 35547  24.5807 252.9818 4168843 230.5254  84.5756  7.13434883256304
Source of the keplerian elements: AFSPC